Regional Weather Roundup
Issued by NWS Newport/Morehead, NC

Current Version | Previous Version | Graphics & Text | Print | Product List | Glossary Off
Versions: 1 2 3 4 5 6 7 8 9 10 11 12 13 14 15 16 17 18 19 20 21 22 23 24 25 26 27 28 29 30 31 32 33 34 35 36 37 38 39 40 41 42 43 44 45 46 47 48 49 50

000
ASUS42 KMHX 282225
RWRMHX
WEATHER ROUNDUP FOR EASTERN NORTH CAROLINA
NATIONAL WEATHER SERVICE NEWPORT/MOREHEAD CITY NC
600 PM EDT SAT MAY 28 2016

NOTE: "FAIR" INDICATES FEW OR NO CLOUDS BELOW 12,000 FEET
WITH NO SIGNIFICANT WEATHER AND/OR OBSTRUCTIONS TO VISIBILITY

NCZ015>017-031-032-045>047-102-103-282300-
NORTH COAST

CITY           SKY/WX    TMP DP  RH WIND       PRES   REMARKS
EDENTON        SUNNY     81  68  65 E10       30.14S
ELIZABETH CITY SUNNY     80  61  52 SE13      30.15S
KITTY HAWK     CLEAR     78  66  66 E6        30.14F
MANTEO         NOT AVBL

$$

NCZ045>047-081-094-103-104-282300-
CENTRAL COAST

CITY           SKY/WX    TMP DP  RH WIND       PRES   REMARKS
FRISCO         CLOUDY    77  71  82 E10       30.14F

$$

NCZ095-097-098-100-101-282300-
SOUTHERN COAST

CITY           SKY/WX    TMP DP  RH WIND       PRES   REMARKS
BEAUFORT       CLOUDY    80  70  71 E12G18    30.11F
CEDAR ISLAND   NOT AVBL
JACKSONVILLE   MOSUNNY   83  66  56 E12       30.10F
PINEY ISLAND   NOT AVBL
WILMINGTON     CLOUDY    78  66  66 E13       30.10F


$$

NCZ011>013-027>030-043-044-078>080-089-090>093-098-282300-
COASTAL PLAIN

CITY           SKY/WX    TMP DP  RH WIND       PRES   REMARKS
AHOSKIE        MOSUNNY   82  65  54 E6        30.12S
CLINTON        CLOUDY    81  69  65 E6        30.11S
ELIZABETHTOWN  CLOUDY    77  74  89 CALM      30.10F
GOLDSBORO      MOSUNNY   84  66  54 E10       30.10
GREENVILLE     MOSUNNY   82  64  54 SE10      30.13S
HAVELOCK       PTSUNNY   82  67  60 E14       30.12F
KENANSVILLE    PTSUNNY   82  64  54 CALM      30.11F
KINSTON        MOSUNNY   84  64  51 SE7       30.12F
NEW BERN       SUNNY     82  65  56 E8        30.12F
RICHLANDS      CLOUDY    82  64  54 E9        30.11F
ROCKY MOUNT    MOSUNNY   83  64  52 VRB3      30.11S
WASHINGTON     MOSUNNY   81  65  57 E10G17    30.12S
WHITEVILLE     CLOUDY    78  67  67 E3        30.09F

$$

AMZ130-135-150-152-154-156-158-170-250-252-270-ANZ085-086-088-633-658-670-282300-
MARINE OBSERVATIONS

STATION/POSITION TIME  TEMP    WIND        PRES    WAVE   SWELL
                       AIR SEA DIR/SP/G            HT/PER HT/PER
                 (UTC) (F)     (DEG/KT/KT) (MB)    (FT/S) (FT/S)
CHESAPEAKE LIGHT 2200   71     120/ 15/ 15 1021.5
64 E VA BEACH    2150   72 67   90/  4/  4 1021.1    4/ 8   3/ 8
DUCK             2200           90/ 11/ 13   N/A
2 E DUCK         2111      68                N/A     2/ 6
OREGON INLET     2200           50/  7/ 10   N/A
13E OREGON INLT  2200      72                N/A     3/ 8   3/ 8
HATTERAS CG      2200           90/  8/ 13   N/A
DIAMOND BUOY     2150   78 79  110/ 10/ 12 1020.3    5/ 8   5/ 8
CAPE LOOKOUT     2200   76      50/ 11/ 13 1019.3
BEAUFORT LAB     2200           90/ 10/ 14   N/A
30 SE NEW RVR IN 2125      75                N/A     6/ 8
27 SE WRIGHTSVLE 2208   76 74   70/ 16/ 21 1018.1
5 SE WRIGHTSVLE  2108   76 75   80/ 14/ 19 1019.8
225 S CAPE HAT   2150   76 76  100/ 19/ 23 1017.7    4/ 8   2/ 8
41 SE CHARLESTON 2150   75 76   20/ 23/ 29 1014.3   10/ 9   5/ 9

$$



USA.gov is the U.S. government's official web portal to all federal, state and local government web resources and services.